User: anonymous   Login
Location: Unspecified
(0.0000°N, 0.0000°E)
Time: 04:15:36
(UTC+00:00)
Language:

STARLINK-4036 - Orbit

View from above orbital plane
View from above orbital plane
View from above satellite
View from above satellite

Ground track
Ground track

The orbit is defined by the following mean orbital elements,

1 52837U          26145.45243156 +.00000000 +00000-0 +64347-4 0 00004
2 52837  53.2132  49.5185 0001777  89.8981 270.2215 15.08834456    03
Epoch (UTC): 25 May 2026 10:51:30
Eccentricity: 0.0001777
inclination: 53.2132°
perigee height: 539 km
apogee height: 541 km
right ascension of ascending node: 49.5185°
argument of perigee: 89.8981°
revolutions per day: 15.08834456
mean anomaly at epoch: 270.2215°

The dashed part of the orbit path shows where the satellite is in the earth's shadow,  

DLR